Location: Unnamed
(48.2382°N, 16.3826°E)
Time: 10:18:45
(UTC+02:00)

Falcon 9 debris - Pass Details

Date: 19 August 2020
Orbit: 426 x 434 km, 53.0° (Epoch: 23 September)

Event Time Altitude Azimuth Distance (km) Brightness Sun altitude
Rises 22:01:15 0° 294° (WNW) 2,412 ? -17.8°
Reaches altitude 10° 22:03:24 10° 299° (WNW) 1,544 ? -18.1°
Maximum altitude 22:06:49 55° 19° (NNE) 531 ? -18.5°
Enters shadow 22:07:42 40° 71° (ENE) 651 ? -18.6°
